Hourly Weather Otok

Today, 24 July, Saturday

Time Temperature Precipitation Wind Pressure Humidity
00:00 +20°C° 0 mm 1 mps 750 mmHg 67%
01:00 +19°C° 0 mm 2 mps 750 mmHg 67%
02:00 +19°C° 0 mm 2 mps 750 mmHg 67%
03:00 +20°C° 0 mm 1 mps 750 mmHg 67%
04:00 +20°C° 0 mm 1 mps 749 mmHg 67%
05:00 +20°C° 0 mm 1 mps 749 mmHg 68%
06:00 +21°C° 0 mm 1 mps 750 mmHg 68%
07:00 +21°C° 0 mm 1 mps 750 mmHg 67%
08:00 +22°C° 0 mm 1 mps 750 mmHg 64%
09:00 +23°C° 0 mm 2 mps 750 mmHg 61%
10:00 +24°C° 0 mm 2 mps 750 mmHg 58%
11:00 +25°C° 0 mm 2 mps 750 mmHg 52%
12:00 +26°C° 0 mm 2 mps 750 mmHg 47%
13:00 +27°C° 0 mm 2 mps 749 mmHg 41%
14:00 +27°C° 0 mm 2 mps 749 mmHg 42%
15:00 +27°C° 0 mm 2 mps 749 mmHg 44%
16:00 +26°C° 0 mm 2 mps 749 mmHg 45%
17:00 +25°C° 0 mm 2 mps 749 mmHg 50%
18:00 +24°C° 0 mm 2 mps 749 mmHg 55%
19:00 +23°C° 0 mm 2 mps 749 mmHg 60%
20:00 +21°C° 0 mm 3 mps 749 mmHg 62%
21:00 +20°C° 0 mm 3 mps 749 mmHg 64%
22:00 +19°C° 0 mm 3 mps 749 mmHg 65%
23:00 +19°C° 0 mm 3 mps 749 mmHg 67%

Tomorrow, 25 July, Sunday

Time Temperature Precipitation Wind Pressure Humidity
00:00 +19°C° 0 mm 3 mps 748 mmHg 68%
01:00 +18°C° 0 mm 3 mps 748 mmHg 70%
02:00 +19°C° 0 mm 3 mps 748 mmHg 70%
03:00 +19°C° 0 mm 2 mps 748 mmHg 70%
04:00 +19°C° 0 mm 2 mps 748 mmHg 71%
05:00 +20°C° 0 mm 3 mps 748 mmHg 69%
06:00 +21°C° 0 mm 3 mps 748 mmHg 67%
07:00 +21°C° 0 mm 3 mps 748 mmHg 66%
08:00 +24°C° 0 mm 3 mps 748 mmHg 61%
09:00 +25°C° 0 mm 3 mps 748 mmHg 57%
10:00 +27°C° 0 mm 3 mps 748 mmHg 53%
11:00 +28°C° 0 mm 3 mps 748 mmHg 49%
12:00 +29°C° 0 mm 3 mps 748 mmHg 44%
13:00 +30°C° 0 mm 3 mps 748 mmHg 40%
14:00 +29°C° 0 mm 3 mps 748 mmHg 47%
15:00 +27°C° 0 mm 4 mps 748 mmHg 54%
16:00 +25°C° 0 mm 4 mps 748 mmHg 62%
17:00 +24°C° 0 mm 3 mps 748 mmHg 65%
18:00 +24°C° 0 mm 3 mps 748 mmHg 68%
19:00 +23°C° 0 mm 2 mps 748 mmHg 71%
20:00 +23°C° 0 mm 2 mps 748 mmHg 71%
21:00 +22°C° 0 mm 3 mps 748 mmHg 70%
22:00 +22°C° 0 mm 4 mps 747 mmHg 70%
23:00 +21°C° 0.1 mm 4 mps 747 mmHg 72%

Day after tomorrow, 26 July, Monday

Time Temperature Precipitation Wind Pressure Humidity
00:00 +21°C° 0.1 mm 4 mps 747 mmHg 75%
01:00 +21°C° 0.1 mm 4 mps 747 mmHg 77%
02:00 +20°C° 0 mm 3 mps 747 mmHg 78%
03:00 +20°C° 0 mm 3 mps 746 mmHg 78%
04:00 +20°C° 0 mm 3 mps 746 mmHg 78%
05:00 +21°C° 0 mm 3 mps 746 mmHg 75%
06:00 +21°C° 0 mm 4 mps 746 mmHg 72%
07:00 +22°C° 0 mm 4 mps 746 mmHg 69%
08:00 +25°C° 0 mm 4 mps 747 mmHg 66%
09:00 +26°C° 0 mm 3 mps 747 mmHg 62%
10:00 +27°C° 0 mm 3 mps 747 mmHg 58%
11:00 +28°C° 0.1 mm 4 mps 747 mmHg 56%
12:00 +29°C° 0.1 mm 4 mps 747 mmHg 53%
13:00 +30°C° 0.1 mm 4 mps 747 mmHg 51%
14:00 +29°C° 0.3 mm 4 mps 747 mmHg 57%
15:00 +27°C° 0.3 mm 4 mps 747 mmHg 64%
16:00 +26°C° 0.3 mm 4 mps 747 mmHg 70%
17:00 +25°C° 0.4 mm 4 mps 747 mmHg 73%
18:00 +25°C° 0.4 mm 3 mps 747 mmHg 76%
19:00 +24°C° 0.4 mm 2 mps 747 mmHg 79%
20:00 +23°C° 0.3 mm 2 mps 747 mmHg 81%
21:00 +21°C° 0.3 mm 2 mps 747 mmHg 83%
22:00 +21°C° 0.3 mm 3 mps 747 mmHg 86%
23:00 +20°C° 0 mm 3 mps 747 mmHg 85%

27 July, Tuesday

Time Temperature Precipitation Wind Pressure Humidity
00:00 +20°C° 0 mm 3 mps 747 mmHg 85%
01:00 +20°C° 0 mm 3 mps 747 mmHg 84%
02:00 +19°C° 0 mm 3 mps 747 mmHg 86%
03:00 +19°C° 0 mm 2 mps 748 mmHg 87%
04:00 +19°C° 0 mm 2 mps 748 mmHg 88%
05:00 +19°C° 0 mm 3 mps 748 mmHg 86%
06:00 +20°C° 0 mm 3 mps 748 mmHg 83%
07:00 +21°C° 0 mm 3 mps 749 mmHg 81%
08:00 +24°C° 0 mm 3 mps 749 mmHg 73%
09:00 +26°C° 0 mm 3 mps 749 mmHg 66%
10:00 +27°C° 0 mm 3 mps 749 mmHg 58%
11:00 +28°C° 0 mm 3 mps 749 mmHg 54%
12:00 +29°C° 0 mm 3 mps 749 mmHg 50%
13:00 +30°C° 0 mm 2 mps 749 mmHg 46%
14:00 +30°C° 0 mm 2 mps 749 mmHg 46%
15:00 +30°C° 0 mm 2 mps 749 mmHg 47%
16:00 +30°C° 0 mm 2 mps 748 mmHg 47%
17:00 +29°C° 0 mm 2 mps 748 mmHg 51%
18:00 +28°C° 0 mm 2 mps 748 mmHg 55%
19:00 +27°C° 0 mm 2 mps 748 mmHg 59%
20:00 +26°C° 0 mm 2 mps 748 mmHg 60%
21:00 +25°C° 0 mm 2 mps 748 mmHg 62%
22:00 +24°C° 0 mm 2 mps 748 mmHg 64%
23:00 +23°C° 0.1 mm 2 mps 748 mmHg 65%

28 July, Wednesday

Time Temperature Precipitation Wind Pressure Humidity
00:00 +23°C° 0.1 mm 1 mps 748 mmHg 65%
01:00 +23°C° 0.1 mm 1 mps 748 mmHg 66%
02:00 +22°C° 0 mm 1 mps 748 mmHg 68%
03:00 +21°C° 0 mm 1 mps 748 mmHg 71%
04:00 +21°C° 0 mm 1 mps 748 mmHg 73%
05:00 +22°C° 0 mm 1 mps 748 mmHg 69%
06:00 +23°C° 0 mm 1 mps 748 mmHg 64%
07:00 +25°C° 0 mm 1 mps 748 mmHg 60%
08:00 +26°C° 0 mm 1 mps 748 mmHg 55%
09:00 +28°C° 0 mm 1 mps 748 mmHg 50%
10:00 +30°C° 0 mm 2 mps 748 mmHg 45%
11:00 +30°C° 0 mm 2 mps 748 mmHg 42%
12:00 +31°C° 0 mm 2 mps 747 mmHg 39%
13:00 +32°C° 0 mm 2 mps 747 mmHg 36%
14:00 +32°C° 0 mm 2 mps 747 mmHg 36%
15:00 +32°C° 0 mm 2 mps 747 mmHg 36%
16:00 +32°C° 0 mm 2 mps 746 mmHg 36%
17:00 +29°C° 0.6 mm 3 mps 747 mmHg 53%
18:00 +25°C° 0.6 mm 3 mps 748 mmHg 71%
19:00 +20°C° 0.6 mm 3 mps 748 mmHg 88%
20:00 +20°C° 0.5 mm 3 mps 748 mmHg 88%
21:00 +20°C° 0.5 mm 2 mps 749 mmHg 88%
22:00 +20°C° 0.5 mm 2 mps 749 mmHg 89%
23:00 +19°C° 0 mm 2 mps 749 mmHg 90%

29 July, Thursday

Time Temperature Precipitation Wind Pressure Humidity
00:00 +19°C° 0 mm 2 mps 749 mmHg 92%
01:00 +19°C° 0 mm 2 mps 749 mmHg 93%
02:00 +18°C° 0 mm 2 mps 749 mmHg 93%
03:00 +17°C° 0 mm 2 mps 749 mmHg 93%
04:00 +17°C° 0 mm 2 mps 750 mmHg 93%
05:00 +18°C° 0 mm 2 mps 750 mmHg 88%
06:00 +19°C° 0 mm 2 mps 750 mmHg 83%
07:00 +21°C° 0 mm 2 mps 750 mmHg 78%
08:00 +23°C° 0 mm 2 mps 750 mmHg 70%
09:00 +25°C° 0 mm 2 mps 750 mmHg 62%
10:00 +26°C° 0 mm 3 mps 750 mmHg 55%
11:00 +27°C° 0 mm 3 mps 750 mmHg 49%
12:00 +28°C° 0 mm 3 mps 749 mmHg 44%
13:00 +29°C° 0 mm 3 mps 749 mmHg 39%
14:00 +29°C° 0 mm 3 mps 749 mmHg 40%
15:00 +29°C° 0 mm 3 mps 748 mmHg 40%
16:00 +29°C° 0 mm 3 mps 748 mmHg 40%
17:00 +28°C° 0 mm 3 mps 748 mmHg 45%
18:00 +27°C° 0 mm 2 mps 748 mmHg 50%
19:00 +26°C° 0 mm 1 mps 747 mmHg 55%
20:00 +25°C° 0 mm 2 mps 747 mmHg 56%
21:00 +24°C° 0 mm 2 mps 747 mmHg 57%
22:00 +22°C° 0 mm 3 mps 747 mmHg 58%
23:00 +22°C° 0 mm 3 mps 746 mmHg 60%
Show more